Location: Lafig�re
(44.4503°N, 4.0357°E)
Time: 15:28:41
(UTC+00:00)

Transit 2A Rocket - Pass Details

Date: 25 January 2021
Orbit: 594 x 908 km, 66.7° (Epoch: 06 March)

Event Time Altitude Azimuth Distance (km) Brightness Sun altitude
Rises 10:13:06 0° 166° (SSE) 3,366 9.7 22.5°
Reaches altitude 10° 10:16:23 10° 148° (SSE) 2,378 9.6 22.7°
Maximum altitude 10:19:51 17° 108° (ESE) 1,853 7.8 23.0°
Drops below altitude 10° 10:23:11 10° 68° (ENE) 2,252 7.5 23.2°
Sets 10:26:10 0° 49° (NE) 3,114 8.0 23.4°
